Simultaneous Nadir Overpasses (SNOs) Predictions

Prediction of SNOs between GOES-17 and AQUA Satellite Orbit:

Table of predicted SNOs for the next 14.0 days since TLE Epoch: 4/24/2021
Index Date Time (GOES-17) GOES-17 Lat,Lon AQUA Lat,Lon Distance(km) Time Diff (sec)
1 04/24/2021 22:48:33 0.02,-137.20 -0.15,-137.92 81.97 80
2 04/26/2021 22:33:42 0.02,-137.19 0.52,-134.97 253.57 80
3 04/27/2021 10:57:36 -0.02,-137.19 0.63,-140.11 332.63 80
4 04/29/2021 10:42:45 -0.02,-137.17 -0.05,-137.17 3.44 80
5 05/01/2021 10:30:33 -0.02,-137.15 -0.68,-134.21 335.42 80
6 05/01/2021 22:51:57 0.02,-137.14 -0.45,-139.39 256.07 80
7 05/03/2021 22:42:25 0.01,-137.11 0.18,-136.44 77.28 80
8 05/05/2021 22:30:12 0.01,-137.08 0.76,-133.47 410.42 80
9 05/06/2021 10:51:27 -0.01,-137.07 0.34,-138.62 176.22 80
